Regional Weather Roundup
Issued by NWS

Home | Current Version | Previous Version | Graphics & Text | Print | Product List | Glossary On
Versions: 1 2 3 4 5 6 7 8 9 10 11 12 13 14 15 16 17 18 19 20 21 22 23 24 25 26 27 28 29 30 31 32 33 34 35 36 37 38 39 40 41 42 43 44 45 46 47 48 49 50
000
ASUS43 KLOT 010110
RWRIL

ILLINOIS REGIONAL WEATHER ROUNDUP
NATIONAL WEATHER SERVICE CHICAGO/ROMEOVILLE IL
800 PM CDT TUE SEP 30 2014

NOTE: "FAIR" INDICATES FEW OR NO CLOUDS BELOW 12,000 FEET WITH NO
SIGNIFICANT WEATHER AND/OR OBSTRUCTIONS TO VISIBILITY.

* THESE STATIONS ARE NOT UNDER NWS QUALITY CONTROL. THEY ALSO MAY NOT
  REPORT WEATHER SUCH AS PRECIPITATION OR FOG.

ILZ001-002-007-009-015-016-024-010200-
NORTHWEST ILLINOIS

CITY           SKY/WX    TMP DP  RH WIND       PRES   REMARKS
MOLINE         NOT AVBL
SAVANNA*       MOCLDY    54  45  72 E7        29.99R
$$

ILZ003-004-008-010-011-017-018-010200-
NORTH CENTRAL ILLINOIS

CITY           SKY/WX    TMP DP  RH WIND       PRES   REMARKS
ROCKFORD       MOCLDY    50  43  77 E7        30.04R
FREEPORT*      CLEAR     47  44  87 E5        30.02R
ROCHELLE*      PTCLDY    51  45  80 E6        30.01S
DE KALB*       CLOUDY    51  45  78 E6        30.02R
PERU*          FAIR      55  47  72 E7        30.01R
$$

ILZ005-006-012>014-019>023-010200-
NORTHEAST ILLINOIS

CITY           SKY/WX    TMP DP  RH WIND       PRES   REMARKS
CHICAGO-OHARE  CLOUDY    53  49  86 N5        30.01S
CHICAGO-MIDWAY DRIZZLE   56  51  84 NE3       30.01R
AURORA         CLOUDY    55  45  68 NE10      30.02R
LANSING*       CLOUDY    56  48  75 NE5       30.01R
JOLIET*        CLOUDY    54  48  79 NE7       30.01S
WAUKEGAN       CLOUDY    52  50  93 N6        30.01
DUPAGE AIRPORT CLOUDY    54  47  77 NE8       30.01S
KANKAKEE*      CLOUDY    55  48  76 NE5       30.02R
WHEELING       CLOUDY    55  49  80 N3        30.03R
MORRIS*        CLOUDY    53  49  84 CALM      30.00R
ROMEOVILLE*    CLOUDY    54  48  79 NE7       30.01S
NORTHERLY ISL    N/A     56  47  71 NE8         N/A
$$

LMZ740>746-010200-
SOUTHERN LAKE MICHIGAN

STATION/POSITION SKY/WX   TEMP    WIND        PRES    VSBY  WAVE
                          AIR SEA DIR/SP/G                  HT/PER
                          (F)     (DEG/KT/KT) (MB)    (MI)  (FT/S)
SOUTHERN BUOY              55 61   30/  8/ 12 1016.8R         3/ 7
WAUKEGAN HARBOR            54      20/ 11/ 13   N/A
HARRISON CRIB              56      30/  8/ 10   N/A
BURNHAM HARBOR             56      50/ 11/ 12   N/A
CALUMET HARBOR             56      30/  6/ 13 1014.9S
MICHIGAN CITY              54      60/  7/ 10   N/A
MICHIGAN CITY 6N           56 64   80/  8/ 12   N/A           4/ 2
ST. JOSEPH                 55 62  120/  4/  8   N/A           3/ 2
$$

ILZ025>027-034>036-040-047-049-050-058-095>099-010200-
WEST-CENTRAL ILLINOIS

CITY           SKY/WX    TMP DP  RH WIND       PRES   REMARKS
QUINCY         CLEAR     67  59  75 E8        29.88F
GALESBURG*     CLEAR     59  53  80 E6        29.94S
MACOMB*        CLEAR     61  56  85 E5        29.94F
JACKSONVILLE*  DRIZZLE   65  58  78 NE7       29.92S
PITTSFIELD*    PTCLDY    67  59  74 NE6       29.90F
$$

ILZ028>032-037-038-041>044-048-051>054-059>061-010200-
CENTRAL ILLINOIS

CITY           SKY/WX    TMP DP  RH WIND       PRES   REMARKS
PONTIAC        CLEAR     55  48  76 E5        29.99R
BLOOMINGTON    CLEAR     58  50  75 E9          N/A
DECATUR        CLEAR     61  55  81 NE8       29.94S
PEORIA         CLEAR     63  49  60 E13       29.96R
LACON*         CLEAR     56  47  72 E6        29.98R
LINCOLN*       CLEAR     64  55  72 NE7       29.92R
SPRINGFIELD    PTCLDY    64  57  78 NE6       29.92S
TAYLORVILLE    PTCLDY    68  55  64 NE7       29.92S
$$

ILZ033-039-045-046-055>057-062-063-010200-
EAST-CENTRAL ILLINOIS

CITY           SKY/WX    TMP DP  RH WIND       PRES   REMARKS
DANVILLE*      PTCLDY    55  49  79 N7        29.95S
RANTOUL*       PTCLDY    59  48  67 NE8       29.98S
MATTOON        CLEAR     63  54  72 NE6       29.94R
PARIS*         PTCLDY    61  55  80 NE5       29.96S
$$

ILZ079-100>102-010200-
SOUTHWEST ILLINOIS

CITY           SKY/WX    TMP DP  RH WIND       PRES   REMARKS
ALTON          CLEAR     68  59  73 E6        29.89S
BELLEVILLE     CLEAR     73  62  68 E6        29.88R
CAHOKIA*       CLEAR     73  60  63 E3        29.87S
SPARTA*        HAZE      68  58  71 SE3       29.89S VSB 1/2
$$

ILZ064>066-069>071-074>076-080>082-084>086-088>090-092>094-010200-
SOUTH-CENTRAL ILLINOIS

CITY           SKY/WX    TMP DP  RH WIND       PRES   REMARKS
CARBONDALE     CLEAR     64  58  80 CALM      29.89R
CAIRO*         CLEAR     66  59  78 CALM      29.88S
EFFINGHAM*     RAIN      67  55  65 NE3       29.92R
MARION         CLEAR     68  57  68 CALM      29.90R
CENTRALIA*     CLEAR     68  60  75 CALM      29.90S
SALEM*         CLEAR     72  63  73 NE5       29.91R
METROPOLIS*    CLEAR     65  59  80 CALM      29.88S
$$

ILZ067-068-072-073-078-083-087-091-010200-
SOUTHEAST ILLINOIS

CITY           SKY/WX    TMP DP  RH WIND       PRES   REMARKS
LAWRENCEVILLE  CLEAR     66  61  84 NE8       29.92S
FLORA*         CLEAR     69  59  71 NE3       29.92R
FAIRFIELD*     CLEAR     68  63  83 CALM      29.90S
HARRISBURG*    CLEAR     68  61  78 CALM      29.91R
ROBINSON*      CLEAR     64  60  87 NE6       29.93S
CARMI*         FAIR      69  60  74 NE3       29.90R
$$

ABBREVIATIONS USED IN REMARKS
   TC - TEMPERATURE IN CELSIUS
  WCI - WIND CHILL INDEX
   HX - HEAT INDEX
  VSB - VISIBILITY
$$



USA.gov is the U.S. government's official web portal to all federal, state and local government web resources and services.